This is the latest recevied weather packets stored in our database for station/object 9W2TBJ-4. If no packets are shown the sender has not sent any weather packets the latest 10 day(s).
| Time | Temp. | Humidity | Pressure | Rain* | Wind** | Luminosity | Snow |
|---|---|---|---|---|---|---|---|
| 1777781570 | 33.33° C | 59% | 1011.1 hPa | - | - | - | - |
| 1777780370 | 32.78° C | 59% | 1011.2 hPa | - | - | - | - |
| 1777779170 | 32.22° C | 60% | 1011.7 hPa | - | - | - | - |
| 1777777970 | 32.78° C | 60% | 1011.6 hPa | - | - | - | - |
| 1777776770 | 32.78° C | 59% | 1011.7 hPa | - | - | - | - |
| 1777775570 | 32.78° C | 59% | 1011.6 hPa | - | - | - | - |
| 1777774370 | 32.22° C | 61% | 1011.8 hPa | - | - | - | - |
| 1777773170 | 32.22° C | 61% | 1011.7 hPa | - | - | - | - |
| 1777771970 | 32.22° C | 61% | 1011.4 hPa | - | - | - | - |
| 1777771020 | 32.22° C | 60% | 1011.3 hPa | - | - | - | - |
| 1777770770 | 32.22° C | 60% | 1011.3 hPa | - | - | - | - |
| 1777769570 | 32.22° C | 60% | 1011 hPa | - | - | - | - |
| 1777768370 | 31.67° C | 62% | 1010.8 hPa | - | - | - | - |
| 1777767170 | 31.67° C | 62% | 1010.3 hPa | - | - | - | - |
| 1777765970 | 31.67° C | 61% | 1010 hPa | - | - | - | - |
| 1777764770 | 31.67° C | 62% | 1009.9 hPa | - | - | - | - |
| 1777763570 | 30.56° C | 64% | 1009.8 hPa | - | - | - | - |
| 1777762369 | 30.56° C | 66% | 1009.6 hPa | - | - | - | - |
| 1777761169 | 30.56° C | 64% | 1009.5 hPa | - | - | - | - |
| 1777759969 | 30.56° C | 64% | 1009.4 hPa | - | - | - | - |
| 1777758769 | 31.11° C | 63% | 1009.4 hPa | - | - | - | - |
| 1777757569 | 30.56° C | 64% | 1009.4 hPa | - | - | - | - |
| 1777756369 | 30.56° C | 66% | 1009.4 hPa | - | - | - | - |
| 1777755169 | 30.56° C | 64% | 1009.5 hPa | - | - | - | - |
| 1777753969 | 31.11° C | 65% | 1009.6 hPa | - | - | - | - |
* Rain since midnight (hover to see other rain measurements)
** Current wind speed in m/s (hover to see current wind gust speed)